Time,TemperatureF,DewpointF,PressureIn,WindDirection,WindDirectionDegrees,WindSpeedMPH,WindSpeedGustMPH,Humidity,HourlyPrecipIn,Conditions,Clouds,dailyrainin,SoftwareType,DateUTC
2013-10-18 00:08:00,57.7,49.0,29.98,SSE,166,0.0,0.0,72,0.00,,,0.00,weatherlink.com 1.10,2013-10-18 05:08:00,
2013-10-18 00:23:00,57.7,49.0,29.98,SSW,193,0.0,0.0,72,0.00,,,0.00,weatherlink.com 1.10,2013-10-18 05:23:00,
2013-10-18 00:38:00,57.5,49.0,29.98,SSW,193,0.0,0.0,72,0.00,,,0.00,weatherlink.com 1.10,2013-10-18 05:38:00,
2013-10-18 00:53:00,57.4,48.0,29.98,SSW,193,0.0,0.0,72,0.00,,,0.00,weatherlink.com 1.10,2013-10-18 05:53:00,
2013-10-18 01:08:00,56.9,48.0,29.98,SSW,193,0.0,0.0,73,0.00,,,0.00,weatherlink.com 1.10,2013-10-18 06:08:00,
2013-10-18 01:23:00,57.1,48.0,29.98,South,190,0.0,0.0,72,0.00,,,0.00,weatherlink.com 1.10,2013-10-18 06:23:00,
2013-10-18 01:38:00,56.2,48.0,29.98,South,190,0.0,0.0,74,0.00,,,0.00,weatherlink.com 1.10,2013-10-18 06:38:00,
2013-10-18 01:53:00,55.5,48.0,29.98,South,190,0.0,0.0,75,0.00,,,0.00,weatherlink.com 1.10,2013-10-18 06:53:00,
2013-10-18 02:08:00,55.1,48.0,29.98,South,190,0.0,0.0,76,0.00,,,0.00,weatherlink.com 1.10,2013-10-18 07:08:00,
2013-10-18 02:23:00,55.0,48.0,29.98,South,190,0.0,0.0,77,0.00,,,0.00,weatherlink.com 1.10,2013-10-18 07:23:00,
2013-10-18 02:38:00,55.1,48.0,29.98,South,190,0.0,0.0,76,0.00,,,0.00,weatherlink.com 1.10,2013-10-18 07:38:00,
2013-10-18 02:53:00,55.6,48.0,29.98,South,183,0.0,0.0,75,0.00,,,0.00,weatherlink.com 1.10,2013-10-18 07:53:00,
2013-10-18 03:08:00,55.5,48.0,29.99,South,182,0.0,0.0,75,0.00,,,0.00,weatherlink.com 1.10,2013-10-18 08:08:00,
2013-10-18 03:23:00,55.0,48.0,29.98,South,182,0.0,0.0,77,0.00,,,0.00,weatherlink.com 1.10,2013-10-18 08:23:00,
2013-10-18 03:38:00,55.0,48.0,29.99,South,182,0.0,0.0,77,0.00,,,0.00,weatherlink.com 1.10,2013-10-18 08:38:00,
2013-10-18 03:53:00,55.1,48.0,29.98,South,182,0.0,0.0,78,0.00,,,0.00,weatherlink.com 1.10,2013-10-18 08:53:00,
2013-10-18 04:08:00,55.2,49.0,29.97,South,182,0.0,0.0,79,0.00,,,0.00,weatherlink.com 1.10,2013-10-18 09:08:00,
2013-10-18 04:23:00,55.2,49.0,29.97,South,182,0.0,0.0,79,0.00,,,0.00,weatherlink.com 1.10,2013-10-18 09:23:00,
2013-10-18 04:38:00,55.0,49.0,29.97,South,182,0.0,0.0,81,0.00,,,0.00,weatherlink.com 1.10,2013-10-18 09:38:00,
2013-10-18 04:53:00,54.6,49.0,29.97,South,182,0.0,0.0,82,0.00,,,0.00,weatherlink.com 1.10,2013-10-18 09:53:00,
2013-10-18 05:08:00,53.9,50.0,29.97,SSW,203,0.0,0.0,85,0.00,,,0.00,weatherlink.com 1.10,2013-10-18 10:08:00,
2013-10-18 05:23:00,53.6,50.0,29.97,SSW,203,0.0,0.0,87,0.00,,,0.00,weatherlink.com 1.10,2013-10-18 10:23:00,
2013-10-18 05:38:00,54.2,50.0,29.97,South,184,0.0,0.0,85,0.00,,,0.00,weatherlink.com 1.10,2013-10-18 10:38:00,
2013-10-18 05:53:00,53.3,49.0,29.97,South,184,0.0,0.0,86,0.00,,,0.00,weatherlink.com 1.10,2013-10-18 10:53:00,
2013-10-18 06:08:00,53.5,50.0,29.97,NW,308,0.0,0.0,87,0.00,,,0.00,weatherlink.com 1.10,2013-10-18 11:08:00,
2013-10-18 06:23:00,53.2,50.0,29.96,NE,49,0.0,0.0,87,0.00,,,0.00,weatherlink.com 1.10,2013-10-18 11:23:00,
2013-10-18 06:38:00,53.5,50.0,29.95,East,82,0.0,0.0,87,0.00,,,0.00,weatherlink.com 1.10,2013-10-18 11:38:00,
2013-10-18 06:53:00,54.8,50.0,29.95,ESE,118,0.0,0.0,85,0.00,,,0.00,weatherlink.com 1.10,2013-10-18 11:53:00,
2013-10-18 07:08:00,53.9,50.0,29.95,ESE,113,0.0,0.0,86,0.00,,,0.00,weatherlink.com 1.10,2013-10-18 12:08:00,
2013-10-18 07:23:00,54.2,51.0,29.99,WNW,289,0.0,0.0,87,0.00,,,0.00,weatherlink.com 1.10,2013-10-18 12:23:00,
2013-10-18 07:39:00,54.2,51.0,29.97,West,281,0.0,0.0,87,0.00,,,0.00,weatherlink.com 1.10,2013-10-18 12:39:00,
2013-10-18 07:54:00,54.1,51.0,29.97,West,281,0.0,0.0,88,0.00,,,0.00,weatherlink.com 1.10,2013-10-18 12:54:00,
2013-10-18 08:09:00,54.2,51.0,29.97,SW,221,0.0,0.0,89,0.00,,,0.00,weatherlink.com 1.10,2013-10-18 13:09:00,
2013-10-18 08:24:00,54.5,51.0,29.97,ESE,119,0.0,0.0,89,0.00,,,0.00,weatherlink.com 1.10,2013-10-18 13:24:00,
2013-10-18 08:39:00,55.3,52.0,29.97,ESE,112,0.0,0.0,87,0.00,,,0.00,weatherlink.com 1.10,2013-10-18 13:39:00,
2013-10-18 08:54:00,55.4,52.0,29.97,ESE,117,0.0,0.0,87,0.00,,,0.00,weatherlink.com 1.10,2013-10-18 13:54:00,
2013-10-18 09:09:00,57.0,53.0,29.97,ESE,117,0.0,0.0,87,0.00,,,0.00,weatherlink.com 1.10,2013-10-18 14:09:00,
2013-10-18 09:24:00,57.7,53.0,29.97,SE,125,0.0,0.0,84,0.00,,,0.00,weatherlink.com 1.10,2013-10-18 14:24:00,
2013-10-18 09:39:00,59.6,54.0,29.98,ESE,120,0.0,0.0,82,0.00,,,0.00,weatherlink.com 1.10,2013-10-18 14:39:00,
2013-10-18 09:54:00,61.3,54.0,29.98,SSE,151,0.0,0.0,78,0.00,,,0.00,weatherlink.com 1.10,2013-10-18 14:54:00,
2013-10-18 10:09:00,62.2,54.0,29.98,SE,138,0.0,0.0,75,0.00,,,0.00,weatherlink.com 1.10,2013-10-18 15:09:00,
2013-10-18 10:24:00,63.6,54.0,29.98,SE,125,0.0,0.0,71,0.00,,,0.00,weatherlink.com 1.10,2013-10-18 15:24:00,
2013-10-18 10:39:00,63.4,54.0,29.97,SSE,159,0.0,0.0,71,0.00,,,0.00,weatherlink.com 1.10,2013-10-18 15:39:00,
2013-10-18 10:54:00,64.4,54.0,29.98,SE,138,0.0,0.0,69,0.00,,,0.00,weatherlink.com 1.10,2013-10-18 15:54:00,
2013-10-18 11:09:00,64.6,54.0,29.97,SE,130,0.0,0.0,68,0.00,,,0.00,weatherlink.com 1.10,2013-10-18 16:09:00,
2013-10-18 11:24:00,64.4,53.0,29.98,SSE,163,0.0,0.0,67,0.00,,,0.00,weatherlink.com 1.10,2013-10-18 16:24:00,
2013-10-18 11:39:00,63.8,53.0,29.98,SSE,153,0.0,0.0,69,0.00,,,0.00,weatherlink.com 1.10,2013-10-18 16:39:00,
2013-10-18 11:54:00,63.6,53.0,29.96,ESE,123,0.0,0.0,69,0.00,,,0.00,weatherlink.com 1.10,2013-10-18 16:54:00,
2013-10-18 12:09:00,65.8,54.0,29.96,ESE,122,0.0,0.0,67,0.00,,,0.00,weatherlink.com 1.10,2013-10-18 17:09:00,
2013-10-18 12:24:00,65.6,53.0,29.95,South,173,0.0,0.0,65,0.00,,,0.00,weatherlink.com 1.10,2013-10-18 17:24:00,
2013-10-18 12:39:00,64.9,51.0,29.93,SE,138,0.0,0.0,62,0.00,,,0.00,weatherlink.com 1.10,2013-10-18 17:39:00,
2013-10-18 12:54:00,65.2,50.0,29.93,ESE,119,0.0,0.0,59,0.00,,,0.00,weatherlink.com 1.10,2013-10-18 17:54:00,
2013-10-18 13:09:00,66.3,50.0,29.91,SE,134,0.0,0.0,56,0.00,,,0.00,weatherlink.com 1.10,2013-10-18 18:09:00,
2013-10-18 13:24:00,68.0,49.0,29.90,SE,144,0.0,0.0,51,0.00,,,0.00,weatherlink.com 1.10,2013-10-18 18:24:00,
2013-10-18 13:39:00,67.8,47.0,29.89,SE,139,0.0,0.0,48,0.00,,,0.00,weatherlink.com 1.10,2013-10-18 18:39:00,
2013-10-18 13:54:00,67.1,49.0,29.89,SSW,204,0.0,0.0,53,0.00,,,0.00,weatherlink.com 1.10,2013-10-18 18:54:00,
2013-10-18 14:09:00,65.7,52.0,29.88,SE,144,0.0,0.0,61,0.00,,,0.00,weatherlink.com 1.10,2013-10-18 19:09:00,
2013-10-18 14:24:00,65.3,52.0,29.89,South,171,0.0,0.0,62,0.00,,,0.00,weatherlink.com 1.10,2013-10-18 19:24:00,
2013-10-18 14:39:00,65.3,53.0,29.90,SE,144,0.0,0.0,64,0.00,,,0.00,weatherlink.com 1.10,2013-10-18 19:39:00,
2013-10-18 14:54:00,65.3,53.0,29.89,South,184,0.0,0.0,64,0.00,,,0.00,weatherlink.com 1.10,2013-10-18 19:54:00,
2013-10-18 15:09:00,65.2,53.0,29.89,SE,130,0.0,0.0,66,0.00,,,0.00,weatherlink.com 1.10,2013-10-18 20:09:00,
2013-10-18 15:24:00,64.6,53.0,29.89,SSE,148,0.0,0.0,66,0.00,,,0.00,weatherlink.com 1.10,2013-10-18 20:24:00,
2013-10-18 15:39:00,64.0,51.0,29.89,South,172,0.0,0.0,62,0.00,,,0.00,weatherlink.com 1.10,2013-10-18 20:39:00,
2013-10-18 15:54:00,64.0,50.0,29.90,South,172,0.0,0.0,60,0.00,,,0.00,weatherlink.com 1.10,2013-10-18 20:54:00,
2013-10-18 16:09:00,63.9,50.0,29.91,South,172,0.0,0.0,60,0.00,,,0.00,weatherlink.com 1.10,2013-10-18 21:09:00,
2013-10-18 16:24:00,63.7,50.0,29.91,NW,315,0.0,0.0,62,0.00,,,0.00,weatherlink.com 1.10,2013-10-18 21:24:00,
2013-10-18 16:39:00,61.9,54.0,29.92,North,349,0.0,0.0,76,0.00,,,0.00,weatherlink.com 1.10,2013-10-18 21:39:00,
2013-10-18 16:54:00,59.6,54.0,29.93,North,355,0.0,0.0,83,0.00,,,0.00,weatherlink.com 1.10,2013-10-18 21:54:00,
2013-10-18 17:09:00,58.6,55.0,29.94,NNE,15,0.0,0.0,87,0.00,,,0.00,weatherlink.com 1.10,2013-10-18 22:09:00,
2013-10-18 17:24:00,57.2,54.0,29.94,NNE,28,0.0,0.0,88,0.00,,,0.00,weatherlink.com 1.10,2013-10-18 22:24:00,
2013-10-18 17:39:00,56.9,54.0,29.95,NNE,19,0.0,0.0,89,0.00,,,0.00,weatherlink.com 1.10,2013-10-18 22:39:00,
2013-10-18 17:54:00,56.4,53.0,29.96,NNW,346,0.0,0.0,88,0.00,,,0.00,weatherlink.com 1.10,2013-10-18 22:54:00,
2013-10-18 18:09:00,56.0,53.0,29.96,North,355,0.0,0.0,89,0.00,,,0.00,weatherlink.com 1.10,2013-10-18 23:09:00,
2013-10-18 18:24:00,55.4,52.0,29.97,North,351,0.0,0.0,89,0.00,,,0.00,weatherlink.com 1.10,2013-10-18 23:24:00,
2013-10-18 18:39:00,54.9,52.0,29.98,North,5,0.0,0.0,89,0.00,,,0.00,weatherlink.com 1.10,2013-10-18 23:39:00,
2013-10-18 18:54:00,52.8,49.0,29.99,North,360,0.0,0.0,88,0.00,,,0.00,weatherlink.com 1.10,2013-10-18 23:54:00,
2013-10-18 19:10:00,50.6,48.0,30.00,North,360,0.0,0.0,91,0.00,,,0.00,weatherlink.com 1.10,2013-10-19 00:10:00,
2013-10-18 19:25:00,49.8,47.0,30.02,North,355,0.0,0.0,91,0.00,,,0.00,weatherlink.com 1.10,2013-10-19 00:25:00,
2013-10-18 19:40:00,49.2,47.0,30.03,North,11,0.0,0.0,91,0.00,,,0.00,weatherlink.com 1.10,2013-10-19 00:40:00,
2013-10-18 19:55:00,48.8,46.0,30.04,NNW,346,0.0,0.0,90,0.00,,,0.00,weatherlink.com 1.10,2013-10-19 00:55:00,
2013-10-18 20:10:00,48.5,46.0,30.05,North,5,0.0,0.0,90,0.00,,,0.00,weatherlink.com 1.10,2013-10-19 01:10:00,
2013-10-18 20:25:00,48.0,45.0,30.06,North,355,0.0,0.0,89,0.00,,,0.00,weatherlink.com 1.10,2013-10-19 01:25:00,
2013-10-18 20:40:00,47.4,44.0,30.07,NW,325,0.0,0.0,89,0.00,,,0.00,weatherlink.com 1.10,2013-10-19 01:40:00,
2013-10-18 20:55:00,47.1,44.0,30.07,NNW,333,0.0,0.0,89,0.00,,,0.00,weatherlink.com 1.10,2013-10-19 01:55:00,
2013-10-18 21:10:00,46.9,44.0,30.09,NNW,332,0.0,0.0,90,0.00,,,0.00,weatherlink.com 1.10,2013-10-19 02:10:00,
2013-10-18 21:25:00,46.7,44.0,30.09,North,5,0.0,0.0,89,0.00,,,0.00,weatherlink.com 1.10,2013-10-19 02:25:00,
2013-10-18 21:40:00,46.3,43.0,30.09,NNE,21,0.0,0.0,89,0.00,,,0.00,weatherlink.com 1.10,2013-10-19 02:40:00,
2013-10-18 21:55:00,46.3,43.0,30.10,North,9,0.0,0.0,89,0.00,,,0.00,weatherlink.com 1.10,2013-10-19 02:55:00,
2013-10-18 22:10:00,46.0,43.0,30.12,North,9,0.0,0.0,88,0.00,,,0.00,weatherlink.com 1.10,2013-10-19 03:10:00,
2013-10-18 22:25:00,46.2,43.0,30.12,North,355,0.0,0.0,88,0.00,,,0.00,weatherlink.com 1.10,2013-10-19 03:25:00,
2013-10-18 22:40:00,46.1,43.0,30.13,NNW,330,0.0,0.0,87,0.00,,,0.00,weatherlink.com 1.10,2013-10-19 03:40:00,
2013-10-18 22:55:00,45.5,42.0,30.14,NNW,333,0.0,0.0,88,0.00,,,0.00,weatherlink.com 1.10,2013-10-19 03:55:00,
2013-10-18 23:10:00,45.2,42.0,30.14,NW,319,0.0,0.0,88,0.00,,,0.00,weatherlink.com 1.10,2013-10-19 04:10:00,
2013-10-18 23:25:00,45.2,42.0,30.15,NNW,347,0.0,0.0,88,0.00,,,0.00,weatherlink.com 1.10,2013-10-19 04:25:00,
2013-10-18 23:40:00,44.1,41.0,30.14,NNW,344,0.0,0.0,89,0.00,,,0.00,weatherlink.com 1.10,2013-10-19 04:40:00,
2013-10-18 23:55:00,43.9,41.0,30.14,NNW,340,0.0,0.0,89,0.00,,,0.00,weatherlink.com 1.10,2013-10-19 04:55:00,